阿斯特拉 2G星 (ASTRA 2G)

导读

ASTRA 2G是由欧洲卫星运营商SES委托建造的通信卫星,于2014年12月27日发射升空。该卫星定点于东经28.2度地球静止轨道,主要为欧洲、非洲地区提供高清数字电视广播、宽带互联网接入等通信服务,设计服役寿命超过15年,目前已超期服役,是SES Astra系列卫星中保障欧洲媒体传输网络稳定运行的重要节点。

基本信息
目录编号:
40364
目录名称:
ASTRA 2G
国际标识:
2014-089A
轨道中心:
EARTH
卫星名称:
阿斯特拉 2G星
卫星全名:
阿斯特拉 2G星 (ASTRA 2G)
卫星状态:
在轨 (已飞行4194 天)
发射日期:
2014-12-27 UTC
国别 :
(SES)
星等 :
--
轨道信息
数据来源 国际轨道数据 AOE轨道数据
星历时间 2026-06-20T15:49:49+0800
1天前
查看轨道信息
2026-06-21T10:00:00+0800
10小时前
查看轨道信息
半长轴 42165.401km 42165.289km
偏心率 0.000472 0.0004836
轨道倾角 0.046° 0.047°
近地点辐角 60.875° 57.115°
升交点赤经 6.761° 9.841°
平近点角 346.536° 260.504°
近地点 35767.361km 35766.76km
远地点 35807.167km 35807.544km
周期 1436.131分钟 1436.125分钟
每日圈数 1.002694 1.002698
详细信息
卫星平台:
Eurostar E3000
平衡模式:
三轴稳定
覆盖范围:
全球
运营商:
欧洲卫星公司
运营商所在国:
卢森堡
制造商(研发单位):
空客防务与航天公司
制造商所在国:
法国大都会
使用方式:
暂无
卫星简介
阿斯特拉卫星是由SES阿斯特拉运营的商业通信卫星,主要提供电视直播到户业务。Astra卫星包括三个系列共19颗卫星,分别定点在三个不同轨位:Astra-1系列包括十三颗卫星,定点东经19.2度;Astra-2系列包括4颗卫星,定点东经28.2度;Astra-3系列包括2颗卫星,定点东经23.5度。该卫星仍在工作。
2D轨道图
3D轨道图
轨道高度分析图
轨道倾角分析图
轨道综合分析图
查看轨道综合分析图